• Em Portugal
  • Lista de países
  • Para 7 dias
  • Temperatura da água
  • Mapas de satélite
  • Mapa do tempo
  • Widgets de tempo
  • user-avatar
    Iniciar Sessão

    Previsão horária em Giumri

    Hoje, 19 Setembro, Terça-feira

    Tempo Temperatura Precipitação Vento Pressão Humidade
    00:00 +16°C° 0,6 mm 1 m/s 637 mmHg 75%
    01:00 +16°C° 0,1 mm 1 m/s 637 mmHg 76%
    02:00 +15°C° 0,1 mm 1 m/s 637 mmHg 76%
    03:00 +15°C° 0 mm 1 m/s 636 mmHg 77%
    04:00 +15°C° 0 mm 1 m/s 636 mmHg 77%
    05:00 +15°C° 0 mm 1 m/s 636 mmHg 78%
    06:00 +14°C° 0 mm 1 m/s 636 mmHg 78%
    07:00 +18°C° 0 mm 1 m/s 637 mmHg 65%
    08:00 +20°C° 0 mm 1 m/s 638 mmHg 53%
    09:00 +23°C° 0 mm 2 m/s 639 mmHg 39%
    10:00 +25°C° 0 mm 2 m/s 639 mmHg 35%
    11:00 +26°C° 0 mm 2 m/s 639 mmHg 32%
    12:00 +27°C° 0 mm 3 m/s 639 mmHg 28%
    13:00 +27°C° 0 mm 3 m/s 639 mmHg 28%
    14:00 +27°C° 0 mm 3 m/s 639 mmHg 27%
    15:00 +28°C° 0 mm 3 m/s 638 mmHg 27%
    16:00 +26°C° 0,1 mm 2 m/s 638 mmHg 32%
    17:00 +24°C° 0,1 mm 2 m/s 637 mmHg 37%
    18:00 +22°C° 0,1 mm 1 m/s 637 mmHg 42%
    19:00 +21°C° 0,2 mm 1 m/s 637 mmHg 48%
    20:00 +20°C° 0,2 mm 1 m/s 637 mmHg 53%
    21:00 +19°C° 0,2 mm 1 m/s 637 mmHg 58%
    22:00 +18°C° 0,2 mm 1 m/s 637 mmHg 60%
    23:00 +18°C° 0,2 mm 1 m/s 637 mmHg 62%

    Amanhã, 20 Setembro, Quarta-feira

    Tempo Temperatura Precipitação Vento Pressão Humidade
    00:00 +18°C° 0,2 mm 1 m/s 637 mmHg 65%
    01:00 +16°C° 0,1 mm 1 m/s 637 mmHg 65%
    02:00 +16°C° 0,1 mm 1 m/s 637 mmHg 66%
    03:00 +15°C° 0,1 mm 1 m/s 637 mmHg 66%
    04:00 +15°C° 0,1 mm 1 m/s 636 mmHg 67%
    05:00 +15°C° 0,1 mm 1 m/s 636 mmHg 68%
    06:00 +13°C° 0,1 mm 0 m/s 636 mmHg 68%
    07:00 +18°C° 0 mm 1 m/s 637 mmHg 58%
    08:00 +20°C° 0 mm 1 m/s 637 mmHg 47%
    09:00 +23°C° 0 mm 1 m/s 638 mmHg 37%
    10:00 +24°C° 0 mm 2 m/s 638 mmHg 33%
    11:00 +26°C° 0 mm 2 m/s 639 mmHg 29%
    12:00 +27°C° 0 mm 3 m/s 639 mmHg 25%
    13:00 +28°C° 0 mm 3 m/s 639 mmHg 25%
    14:00 +28°C° 0 mm 3 m/s 638 mmHg 24%
    15:00 +28°C° 0 mm 3 m/s 638 mmHg 23%
    16:00 +26°C° 0 mm 2 m/s 638 mmHg 29%
    17:00 +24°C° 0 mm 2 m/s 637 mmHg 34%
    18:00 +21°C° 0 mm 2 m/s 636 mmHg 39%
    19:00 +20°C° 0 mm 2 m/s 636 mmHg 45%
    20:00 +19°C° 0 mm 2 m/s 636 mmHg 51%
    21:00 +17°C° 0 mm 2 m/s 636 mmHg 57%
    22:00 +17°C° 0 mm 2 m/s 636 mmHg 59%
    23:00 +16°C° 0 mm 2 m/s 636 mmHg 61%

    Depois de amanhã, 21 Setembro, Quinta-feira

    Tempo Temperatura Precipitação Vento Pressão Humidade
    00:00 +16°C° 0 mm 1 m/s 636 mmHg 64%
    01:00 +16°C° 0 mm 1 m/s 636 mmHg 64%
    02:00 +15°C° 0 mm 1 m/s 636 mmHg 65%
    03:00 +15°C° 0 mm 1 m/s 636 mmHg 66%
    04:00 +15°C° 0 mm 1 m/s 635 mmHg 66%
    05:00 +14°C° 0 mm 1 m/s 635 mmHg 65%
    06:00 +14°C° 0 mm 1 m/s 635 mmHg 65%
    07:00 +18°C° 0 mm 1 m/s 636 mmHg 54%
    08:00 +21°C° 0 mm 1 m/s 637 mmHg 43%
    09:00 +23°C° 0 mm 1 m/s 638 mmHg 32%
    10:00 +25°C° 0 mm 2 m/s 638 mmHg 30%
    11:00 +26°C° 0 mm 2 m/s 638 mmHg 27%
    12:00 +28°C° 0 mm 3 m/s 638 mmHg 25%
    13:00 +28°C° 0 mm 3 m/s 637 mmHg 25%
    14:00 +28°C° 0 mm 3 m/s 637 mmHg 25%
    15:00 +28°C° 0 mm 3 m/s 637 mmHg 25%
    16:00 +26°C° 0,1 mm 2 m/s 636 mmHg 32%
    17:00 +24°C° 0,1 mm 2 m/s 636 mmHg 38%
    18:00 +21°C° 0,1 mm 2 m/s 635 mmHg 45%
    19:00 +20°C° 0 mm 2 m/s 635 mmHg 51%
    20:00 +19°C° 0 mm 2 m/s 635 mmHg 57%
    21:00 +18°C° 0 mm 2 m/s 635 mmHg 63%
    22:00 +18°C° 0 mm 2 m/s 635 mmHg 66%
    23:00 +17°C° 0 mm 2 m/s 635 mmHg 70%

    22 Setembro, Sexta-feira

    Tempo Temperatura Precipitação Vento Pressão Humidade
    00:00 +16°C° 0 mm 2 m/s 635 mmHg 73%
    01:00 +15°C° 0 mm 2 m/s 635 mmHg 75%
    02:00 +15°C° 0 mm 2 m/s 634 mmHg 76%
    03:00 +14°C° 0 mm 2 m/s 634 mmHg 77%
    04:00 +14°C° 0 mm 1 m/s 634 mmHg 78%
    05:00 +14°C° 0 mm 1 m/s 634 mmHg 79%
    06:00 +13°C° 0 mm 1 m/s 634 mmHg 80%
    07:00 +16°C° 0 mm 1 m/s 635 mmHg 67%
    08:00 +19°C° 0 mm 2 m/s 636 mmHg 55%
    09:00 +21°C° 0 mm 2 m/s 636 mmHg 43%
    10:00 +24°C° 0 mm 2 m/s 636 mmHg 38%
    11:00 +25°C° 0 mm 3 m/s 636 mmHg 33%
    12:00 +27°C° 0 mm 3 m/s 637 mmHg 28%
    13:00 +27°C° 0 mm 3 m/s 636 mmHg 27%
    14:00 +27°C° 0 mm 3 m/s 636 mmHg 27%
    15:00 +27°C° 0 mm 3 m/s 636 mmHg 27%
    16:00 +25°C° 0,2 mm 2 m/s 636 mmHg 33%
    17:00 +23°C° 0,2 mm 2 m/s 635 mmHg 40%
    18:00 +20°C° 0,2 mm 2 m/s 635 mmHg 46%
    19:00 +19°C° 0,1 mm 2 m/s 635 mmHg 52%
    20:00 +18°C° 0,1 mm 2 m/s 635 mmHg 57%
    21:00 +17°C° 0,1 mm 2 m/s 636 mmHg 63%
    22:00 +16°C° 0,2 mm 2 m/s 636 mmHg 64%
    23:00 +16°C° 0,2 mm 2 m/s 636 mmHg 64%

    23 Setembro, Sábado

    Tempo Temperatura Precipitação Vento Pressão Humidade
    00:00 +15°C° 0,2 mm 2 m/s 636 mmHg 65%
    01:00 +15°C° 0,1 mm 2 m/s 636 mmHg 64%
    02:00 +14°C° 0,1 mm 2 m/s 636 mmHg 63%
    03:00 +14°C° 0,1 mm 2 m/s 636 mmHg 62%
    04:00 +13°C° 0,1 mm 2 m/s 636 mmHg 62%
    05:00 +13°C° 0,1 mm 2 m/s 636 mmHg 62%
    06:00 +13°C° 0,1 mm 2 m/s 636 mmHg 62%
    07:00 +15°C° 0,1 mm 2 m/s 636 mmHg 55%
    08:00 +18°C° 0,1 mm 2 m/s 637 mmHg 48%
    09:00 +21°C° 0,1 mm 1 m/s 638 mmHg 42%
    10:00 +21°C° 0,1 mm 2 m/s 638 mmHg 39%
    11:00 +24°C° 0,1 mm 2 m/s 638 mmHg 36%
    12:00 +25°C° 0,1 mm 2 m/s 638 mmHg 33%
    13:00 +25°C° 0,3 mm 2 m/s 638 mmHg 33%
    14:00 +26°C° 0,3 mm 3 m/s 638 mmHg 33%
    15:00 +26°C° 0,3 mm 3 m/s 638 mmHg 33%
    16:00 +24°C° 0,4 mm 2 m/s 638 mmHg 39%
    17:00 +21°C° 0,4 mm 2 m/s 637 mmHg 45%
    18:00 +19°C° 0,4 mm 2 m/s 637 mmHg 51%
    19:00 +18°C° 0,2 mm 2 m/s 637 mmHg 54%
    20:00 +17°C° 0,2 mm 2 m/s 637 mmHg 57%
    21:00 +15°C° 0,2 mm 2 m/s 637 mmHg 61%
    22:00 +15°C° 0,1 mm 2 m/s 637 mmHg 60%
    23:00 +14°C° 0,1 mm 2 m/s 637 mmHg 60%

    24 Setembro, Domingo

    Tempo Temperatura Precipitação Vento Pressão Humidade
    00:00 +14°C° 0,1 mm 2 m/s 637 mmHg 60%
    01:00 +14°C° 0,1 mm 2 m/s 637 mmHg 61%
    02:00 +13°C° 0,1 mm 2 m/s 637 mmHg 61%
    03:00 +13°C° 0,1 mm 2 m/s 637 mmHg 62%
    04:00 +13°C° 0,1 mm 2 m/s 637 mmHg 62%
    05:00 +12°C° 0,1 mm 2 m/s 637 mmHg 63%
    06:00 +12°C° 0,1 mm 1 m/s 637 mmHg 63%
    07:00 +15°C° 0,1 mm 1 m/s 638 mmHg 57%
    08:00 +18°C° 0,1 mm 1 m/s 638 mmHg 50%
    09:00 +21°C° 0,1 mm 1 m/s 639 mmHg 43%
    10:00 +21°C° 0 mm 2 m/s 639 mmHg 39%
    11:00 +23°C° 0 mm 2 m/s 639 mmHg 36%
    12:00 +25°C° 0 mm 2 m/s 639 mmHg 33%
    13:00 +25°C° 0,2 mm 2 m/s 639 mmHg 32%
    14:00 +25°C° 0,2 mm 2 m/s 639 mmHg 32%
    15:00 +26°C° 0,2 mm 3 m/s 639 mmHg 31%
    16:00 +24°C° 0,2 mm 2 m/s 638 mmHg 38%
    17:00 +21°C° 0,2 mm 2 m/s 638 mmHg 44%
    18:00 +19°C° 0,2 mm 2 m/s 637 mmHg 50%
    19:00 +17°C° 0,1 mm 2 m/s 637 mmHg 54%
    20:00 +16°C° 0,1 mm 2 m/s 637 mmHg 57%
    21:00 +15°C° 0,1 mm 2 m/s 637 mmHg 61%
    22:00 +15°C° 0 mm 2 m/s 637 mmHg 60%
    23:00 +14°C° 0 mm 2 m/s 637 mmHg 60%
    Mostrar mais